This is the latest recevied weather packets stored in our database for station/object OK0EK-11. If no packets are shown the sender has not sent any weather packets the latest 10 day(s).
| Time | Temp. | Humidity | Pressure | Rain* | Wind** | Luminosity | Snow |
|---|---|---|---|---|---|---|---|
| 1778176772 | 11.67° C | 68% | 1015 hPa | - | - | - | - |
| 1778176173 | 11.67° C | 67% | 1014.9 hPa | - | - | - | - |
| 1778175575 | 11.67° C | 68% | 1014.9 hPa | - | - | - | - |
| 1778174976 | 12.22° C | 69% | 1014.8 hPa | - | - | - | - |
| 1778174377 | 12.22° C | 69% | 1014.7 hPa | - | - | - | - |
| 1778173777 | 12.78° C | 67% | 1014.7 hPa | - | - | - | - |
| 1778173179 | 12.78° C | 67% | 1014.6 hPa | - | - | - | - |
| 1778172580 | 12.78° C | 67% | 1014.6 hPa | - | - | - | - |
| 1778171981 | 13.33° C | 66% | 1014.5 hPa | - | - | - | - |
| 1778171382 | 13.33° C | 66% | 1014.5 hPa | - | - | - | - |
| 1778170783 | 13.89° C | 65% | 1014.5 hPa | - | - | - | - |
| 1778170185 | 13.89° C | 64% | 1014.5 hPa | - | - | - | - |
| 1778169585 | 13.89° C | 65% | 1014.5 hPa | - | - | - | - |
| 1778168986 | 13.89° C | 65% | 1014.5 hPa | - | - | - | - |
| 1778168387 | 13.33° C | 65% | 1014.5 hPa | - | - | - | - |
| 1778167789 | 13.33° C | 64% | 1014.7 hPa | - | - | - | - |
| 1778167189 | 13.33° C | 64% | 1014.7 hPa | - | - | - | - |
| 1778166590 | 13.89° C | 64% | 1014.6 hPa | - | - | - | - |
| 1778165991 | 13.33° C | 66% | 1014.7 hPa | - | - | - | - |
| 1778165391 | 13.33° C | 68% | 1014.7 hPa | - | - | - | - |
| 1778164792 | 12.78° C | 69% | 1014.8 hPa | - | - | - | - |
| 1778164192 | 12.78° C | 70% | 1014.7 hPa | - | - | - | - |
| 1778163593 | 12.22° C | 70% | 1014.7 hPa | - | - | - | - |
| 1778162994 | 12.78° C | 69% | 1014.9 hPa | - | - | - | - |
| 1778162394 | 12.78° C | 68% | 1014.9 hPa | - | - | - | - |
* Rain since midnight (hover to see other rain measurements)
** Current wind speed in m/s (hover to see current wind gust speed)